Location: Balaclava NSW 2575, Australia
(34.4510°S, 150.4953°E)
Time: 09:35:41
(UTC+10:00)

X-37B - Pass Details

Date: 03 August 2021
Orbit: 381 x 393 km, 45.0° (Epoch: 29 August)

Event Time Altitude Azimuth Distance (km) Brightness Sun altitude
Rises 18:41:24 0° 231° (SW) 2,314 5.1 -17.2°
Reaches altitude 10° 18:43:59 10° 210° (SSW) 1,452 3.7 -17.8°
Enters shadow 18:45:47 17° 177° (S) 1,104 2.7 -18.1°
